Tracking 27382 objects as of 5-Jun-2023
HD Live streaming from Space Station
objects crossing your sky now

STARLINK-6337

Track STARLINK-6337 now!
10-day predictions
STARLINK-6337 is classified as:


NORAD ID: 56528
Int'l Code: 2023-065AB
Perigee: 360.9 km
Apogee: 363.4 km
Inclination: 43.0 °
Period: 91.6 minutes
Semi major axis: 6733 km
RCS: Unknown
Launch date: May 14, 2023
Source: United States (US)
Launch site: AIR FORCE EASTERN TEST RANGE (AFETR)
Your satellite tracking list
Your tracking list is empty




NASA's NSSDC Master Catalog

Two Line Element Set (TLE):
1 56528U 23065AB  23155.50195529  .00003586  00000-0  30780-4 0  9998
2 56528  42.9995 315.8261 0001870 273.2305  86.8349 15.71356565  4567
Source of the keplerian elements: AFSPC